Погода в Ахангаране

Узбекистан     40˚54′37″N   69˚38′37″E
темп.,
°C
ветер,
м/с
пор.,
м/с
влажн.,
%
обл.,
%
осадки,
мм/ч
давл.,
гПа
погр.,
м
5 декабря, сб
сб523:00−4˚вюв118514 0.0 103121
02:00−4˚в11750 0.0 103121
05:00−5˚всв22600 0.0 103222
08:00−6˚всв33520 0.0 103226
11:00−1˚с01490 0.0 1031174
14:00зюз11577 0.0 1029165
17:00−4˚св116735 0.0 103121
20:00−4˚всв334486 0.0 103138
6 декабря, вс
вс623:00−3˚всв334387 0.0 103137
02:00−3˚всв224798 0.0 103126
05:00−1˚в226899 0.0 103230
08:00−1˚в1279100 0.1 103227
11:00+2˚зюз017699 0.1 1030130
14:00+2˚з217958 0.0 1029163
17:00−2˚с018767 0.0 103021
20:00−1˚всв2273100 0.0 103022
7 декабря, пн
пн723:00−1˚всв2263100 0.0 102822
02:00−2˚всв116218 0.0 102821
05:00−2˚зсз116759 0.0 102621
08:00−3˚зюз0179100 0.0 102721
11:00−1˚з217597 0.0 1028205
14:00−1˚з2278100 0.0 1027206
17:00−3˚з2283100 0.0 1029107
20:00−4˚юз1183100 0.0 1031112
8 декабря, вт
вт823:00−4˚зюз1185100 0.1 103179
02:00−4˚зсз1276100 0.0 103272
05:00−5˚з2273100 0.0 103192
08:00−5˚з1174100 0.0 1033104
11:00−4˚з2271100 0.0 1033244
14:00−3˚зсз2270100 0.0 1033371
17:00−5˚зсз2276100 0.0 1035143
20:00−6˚сз0176100 0.0 103782
9 декабря, ср
ср923:00−6˚с016870 0.0 103721
02:00−6˚всв11580 0.0 103821
05:00−6˚св11470 0.0 103721
08:00−5˚св11400 0.0 103721
11:00−1˚зсз22400 0.0 1035170
14:00зсз22470 0.0 1032255
17:00−4˚ссв01580 0.0 103321
20:00−3˚всв11510 0.0 103221